Regional Weather Roundup
Issued by NWS

Home | Current Version | Previous Version | Text Only | Print | Product List | Glossary Off
Versions: 1 2 3 4 5 6 7 8 9 10 11 12 13 14 15 16 17 18 19 20 21 22 23 24 25 26 27 28 29 30 31 32 33 34 35 36 37 38 39 40 41 42 43 44 45 46 47 48 49 50

000
ASUS43 KBIS 231810
RWRND

NORTH DAKOTA REGIONAL WEATHER ROUNDUP
NATIONAL WEATHER SERVICE BISMARCK ND
100 PM CDT SAT AUG 23 2014

NOTE: "FAIR" INDICATES FEW OR NO CLOUDS BELOW 12,000 FEET WITH NO
SIGNIFICANT WEATHER AND/OR OBSTRUCTIONS TO VISIBILITY.


NDZ001>003-009>011-017-231900-
NORTHWEST NORTH DAKOTA

CITY           SKY/WX    TMP DP  RH WIND       PRES   REMARKS
WILLISTON      LGT RAIN  56  53  90 NE15      30.03F
6HR MIN TEMP:  56; 6HR MAX TEMP:  58; 6HR PCP:  0.19;

MINOT          LGT RAIN  57  55  93 N12       30.03F FOG
MINOT AFB      LGT RAIN  56  56  99 NE13      30.04F
$$

NDZ018>021-031>035-040>046-231900-
SOUTHWEST NORTH DAKOTA

CITY           SKY/WX    TMP DP  RH WIND       PRES   REMARKS
BISMARCK       HVY RAIN  61  60  97 NE17      29.91F FOG
6HR MIN TEMP:  60; 6HR MAX TEMP:  62; 6HR PCP:  0.19;

DICKINSON      LGT RAIN  57  56  96 NE18      29.92F FOG
GARRISON         N/A     58  56  93 NE9G18    29.99F
6HR MIN TEMP:  57; 6HR MAX TEMP:  58; 6HR PCP:  0.13;

HETTINGER ARPT RAIN      60  58  92 NE20G26   29.89F FOG
$$

NDZ004>008-012>016-024-026-027-054-231900-
NORTHEAST NORTH DAKOTA

CITY           SKY/WX    TMP DP  RH WIND       PRES   REMARKS
GRAND FORKS    CLOUDY    70  66  88 N12       29.99F
GRND FRKS AFB  CLOUDY    64  64 100 NE9       30.01F
DEVILS LAKE    CLOUDY    61  55  82 NE14      30.00F
$$

NDZ022-023-025-028>030-036>039-047>053-231900-
SOUTHEAST NORTH DAKOTA

CITY           SKY/WX    TMP DP  RH WIND       PRES   REMARKS
FARGO          CLOUDY    73  69  87 E9        29.96F
6HR MIN TEMP:  65; 6HR MAX TEMP:  73; 6HR PCP:  0.02;

JAMESTOWN      CLOUDY    64  62  93 E14       29.95F
$$



USA.gov is the U.S. government's official web portal to all federal, state and local government web resources and services.